TimeMST,TemperatureF,Dew PointF,Humidity,Sea Level PressureIn,VisibilityMPH,Wind Direction,Wind SpeedMPH,Gust SpeedMPH,PrecipitationIn,Events,Conditions,WindDirDegrees,DateUTC
12:53 AM,23.0,19.9,88,30.29,3.0,Calm,Calm,-,N/A,,Overcast,0,2013-01-26 07:53:00
1:53 AM,25.0,21.0,85,30.27,2.5,Calm,Calm,-,N/A,,Overcast,0,2013-01-26 08:53:00
2:53 AM,26.1,21.9,84,30.26,2.5,NNE,3.5,-,N/A,,Overcast,30,2013-01-26 09:53:00
3:09 AM,26.6,21.2,80,30.16,3.0,Calm,Calm,-,N/A,,Haze,0,2013-01-26 10:09:00
3:21 AM,24.8,21.2,86,30.16,2.5,Calm,Calm,-,N/A,,Overcast,0,2013-01-26 10:21:00
3:53 AM,25.0,21.0,85,30.24,2.5,Calm,Calm,-,N/A,,Overcast,0,2013-01-26 10:53:00
4:07 AM,24.8,21.2,86,30.15,3.0,Calm,Calm,-,N/A,,Overcast,0,2013-01-26 11:07:00
4:53 AM,25.0,19.9,81,30.23,4.0,Calm,Calm,-,N/A,,Haze,0,2013-01-26 11:53:00
5:53 AM,24.1,19.9,84,30.21,4.0,Calm,Calm,-,N/A,,Mostly Cloudy,0,2013-01-26 12:53:00
6:30 AM,21.2,17.6,86,30.12,2.5,Calm,Calm,-,N/A,,Clear,0,2013-01-26 13:30:00
6:53 AM,18.0,16.0,92,30.25,2.0,NW,3.5,-,N/A,,Clear,320,2013-01-26 13:53:00
7:37 AM,17.6,15.8,93,30.12,1.5,NW,3.5,-,N/A,,Mostly Cloudy,310,2013-01-26 14:37:00
7:53 AM,19.9,17.1,89,30.24,1.2,West,3.5,-,N/A,,Mostly Cloudy,260,2013-01-26 14:53:00
8:29 AM,21.2,19.4,93,30.11,1.8,Calm,Calm,-,N/A,,Overcast,0,2013-01-26 15:29:00
8:44 AM,24.8,19.4,80,30.11,2.0,West,3.5,-,N/A,,Overcast,260,2013-01-26 15:44:00
8:53 AM,24.1,21.0,88,30.20,2.0,NNW,3.5,-,N/A,,Overcast,340,2013-01-26 15:53:00
9:05 AM,26.6,21.2,80,30.10,1.8,North,3.5,-,N/A,,Overcast,10,2013-01-26 16:05:00
9:12 AM,26.6,21.2,80,30.09,1.2,North,4.6,-,N/A,,Haze,350,2013-01-26 16:12:00
9:34 AM,26.6,21.2,80,30.09,1.8,Calm,Calm,-,N/A,,Haze,0,2013-01-26 16:34:00
9:50 AM,26.6,23.0,86,30.09,1.5,Calm,Calm,-,N/A,,Overcast,0,2013-01-26 16:50:00
9:53 AM,27.0,23.0,85,30.17,1.5,Calm,Calm,-,N/A,,Overcast,0,2013-01-26 16:53:00
10:17 AM,28.4,23.0,80,30.08,1.8,Calm,Calm,-,N/A,,Haze,0,2013-01-26 17:17:00
10:37 AM,30.2,23.0,75,30.07,2.0,Calm,Calm,-,N/A,,Haze,0,2013-01-26 17:37:00
10:53 AM,30.0,24.1,79,30.15,2.0,Calm,Calm,-,N/A,,Haze,0,2013-01-26 17:53:00
11:26 AM,30.2,24.8,80,30.05,3.0,South,3.5,-,N/A,,Haze,190,2013-01-26 18:26:00
11:37 AM,30.2,24.8,80,30.05,2.5,Calm,Calm,-,N/A,,Haze,0,2013-01-26 18:37:00
11:53 AM,30.0,24.1,79,30.12,2.0,SSE,3.5,-,N/A,,Haze,160,2013-01-26 18:53:00
12:22 PM,30.2,23.0,75,30.01,3.0,Calm,Calm,-,N/A,,Haze,0,2013-01-26 19:22:00
12:53 PM,32.0,24.1,73,30.07,3.0,Calm,Calm,-,N/A,,Haze,0,2013-01-26 19:53:00
1:08 PM,30.2,24.8,80,29.99,2.5,East,5.8,-,N/A,,Haze,90,2013-01-26 20:08:00
1:24 PM,28.4,23.0,80,29.98,3.0,East,5.8,-,N/A,,Haze,90,2013-01-26 20:24:00
1:53 PM,30.0,23.0,75,30.04,3.0,East,4.6,-,N/A,,Haze,80,2013-01-26 20:53:00
2:53 PM,28.9,21.9,75,30.01,4.0,East,3.5,-,N/A,,Haze,80,2013-01-26 21:53:00
3:53 PM,30.9,21.9,69,29.97,5.0,Calm,Calm,-,N/A,,Haze,0,2013-01-26 22:53:00
4:53 PM,28.9,23.0,78,29.96,4.0,East,3.5,-,N/A,,Haze,100,2013-01-26 23:53:00
5:53 PM,28.0,23.0,81,29.97,5.0,East,3.5,-,N/A,,Haze,90,2013-01-27 00:53:00
6:26 PM,26.6,23.0,86,29.88,2.0,ENE,3.5,-,0.00,Snow,Light Snow,70,2013-01-27 01:26:00
6:35 PM,26.6,23.0,86,29.89,2.0,Calm,Calm,-,0.00,Snow,Light Snow,0,2013-01-27 01:35:00
6:42 PM,26.6,23.0,86,29.89,1.8,Calm,Calm,-,0.00,Snow,Light Snow,0,2013-01-27 01:42:00
6:50 PM,26.6,23.0,86,29.88,1.2,Calm,Calm,-,0.00,Snow,Light Snow,0,2013-01-27 01:50:00
6:53 PM,27.0,23.0,85,29.99,1.2,Calm,Calm,-,0.00,Snow,Light Snow,0,2013-01-27 01:53:00
7:53 PM,26.1,24.1,92,29.98,1.0,Calm,Calm,-,0.02,Snow,Light Snow,0,2013-01-27 02:53:00
8:31 PM,26.6,24.8,93,29.86,0.8,Calm,Calm,-,0.02,Snow,Light Snow,0,2013-01-27 03:31:00
8:53 PM,27.0,25.0,92,29.94,0.8,Calm,Calm,-,0.04,Snow,Light Snow,0,2013-01-27 03:53:00
8:58 PM,26.6,24.8,93,29.85,0.8,Calm,Calm,-,0.00,Snow,Light Snow,0,2013-01-27 03:58:00
9:25 PM,26.6,24.8,93,29.86,0.8,Calm,Calm,-,0.02,Snow,Light Snow,0,2013-01-27 04:25:00
9:32 PM,26.6,24.8,93,29.86,1.0,Calm,Calm,-,0.02,Snow,Light Snow,0,2013-01-27 04:32:00
9:41 PM,26.6,24.8,93,29.86,0.8,Calm,Calm,-,0.03,Snow,Light Snow,0,2013-01-27 04:41:00
9:53 PM,27.0,25.0,92,29.94,0.8,Calm,Calm,-,0.04,Snow,Light Snow,0,2013-01-27 04:53:00
10:02 PM,26.6,24.8,93,29.86,1.0,Calm,Calm,-,0.01,Snow,Light Snow,0,2013-01-27 05:02:00
10:27 PM,26.6,24.8,93,29.86,1.0,Calm,Calm,-,0.02,Snow,Light Snow,0,2013-01-27 05:27:00
10:53 PM,27.0,25.0,92,29.93,1.0,Calm,Calm,-,0.04,Snow,Light Snow,0,2013-01-27 05:53:00
11:53 PM,30.0,25.0,82,29.92,1.2,Calm,Calm,-,0.02,Snow,Light Snow,0,2013-01-27 06:53:00